Location: Edmondson
(35.1065°N, 90.3104°W)
Time: 01:50:23
(UTC+00:00)

ACS3 Solar Sail - Visible Passes

Search period start: 06 October 2024 00:00
Search period end: 16 October 2024 00:00
Orbit: 961 x 1037 km, 97.4° (Epoch: 05 October)

Date Brightness Start Highest point End Pass type
(mag) Time Alt. Az. Time Alt. Az. Time Alt. Az.
06 Oct 2.5 01:17:38 34° ENE 01:17:56 35° ENE 01:23:34 10° N visible
06 Oct 3.4 03:02:48 32° WNW 03:02:48 32° WNW 03:07:27 10° NNW visible
07 Oct 1.9 01:50:03 62° NE 01:50:03 62° NE 01:55:56 10° N visible
07 Oct 4.2 03:35:13 17° WNW 03:35:13 17° WNW 03:38:01 10° NW visible
08 Oct 3.2 00:37:17 16° ENE 00:38:17 17° ENE 00:42:07 10° NNE visible
08 Oct 2.2 02:22:27 62° NW 02:22:27 62° NW 02:27:52 10° NNW visible
09 Oct 2.6 01:09:40 31° ENE 01:09:47 31° ENE 01:15:13 10° N visible
09 Oct 3.3 02:54:50 34° WNW 02:54:50 34° WNW 02:59:21 10° NNW visible
10 Oct 2.0 01:42:02 55° NE 01:42:02 55° NE 01:47:37 10° N visible
10 Oct 4.1 03:27:13 18° WNW 03:27:13 18° WNW 03:30:04 10° NW visible
11 Oct 3.3 00:29:14 15° ENE 00:30:04 15° ENE 00:33:25 10° NNE visible
11 Oct 2.2 02:14:23 61° NNW 02:14:23 61° NNW 02:19:34 10° NNW visible
12 Oct 2.7 01:01:34 28° ENE 01:01:34 28° ENE 01:06:41 10° NNE visible
12 Oct 3.2 02:46:44 36° WNW 02:46:44 36° WNW 02:51:05 10° NNW visible
13 Oct 2.2 01:33:53 48° NE 01:33:53 48° NE 01:39:08 10° N visible
13 Oct 4.0 03:19:04 19° WNW 03:19:04 19° WNW 03:21:56 10° NW visible
14 Oct 3.4 00:21:02 13° ENE 00:21:43 13° ENE 00:24:27 10° NE visible
14 Oct 2.2 02:06:12 57° NNW 02:06:12 57° NNW 02:11:07 10° NNW visible
15 Oct 2.9 00:53:20 25° ENE 00:53:20 25° ENE 00:58:00 10° NNE visible
15 Oct 3.1 02:38:30 37° NW 02:38:30 37° NW 02:42:39 10° NNW visible
